Time,TemperatureF,DewpointF,PressureIn,WindDirection,WindDirectionDegrees,WindSpeedMPH,WindSpeedGustMPH,Humidity,HourlyPrecipIn,Conditions,Clouds,dailyrainin,SoftwareType,DateUTC
2013-02-18 00:00:00,53.4,31.4,29.60,SSE,155,9.0,17.0,43,0.00,BKN,BKN,0.00,WeatherDisplay:10.37,2013-02-18 06:00:00,
2013-02-18 00:06:00,53.8,31.2,29.59,SSE,147,10.0,17.0,42,0.00,BKN,BKN,0.00,WeatherDisplay:10.37,2013-02-18 06:06:00,
2013-02-18 00:12:00,53.8,31.2,29.59,SE,138,13.0,21.0,42,0.00,BKN,BKN,0.00,WeatherDisplay:10.37,2013-02-18 06:12:00,
2013-02-18 00:18:00,54.0,31.4,29.59,SSE,157,12.0,23.0,42,0.00,BKN,BKN,0.00,WeatherDisplay:10.37,2013-02-18 06:18:00,
2013-02-18 00:24:00,54.0,31.4,29.59,SSE,154,12.0,21.0,42,0.00,BKN,BKN,0.00,WeatherDisplay:10.37,2013-02-18 06:24:00,
2013-02-18 00:30:00,54.3,31.1,29.58,SSE,150,17.0,26.0,41,0.00,BKN,BKN,0.00,WeatherDisplay:10.37,2013-02-18 06:30:00,
2013-02-18 00:36:00,54.3,31.1,29.58,SSE,149,18.0,24.0,41,0.00,BKN,BKN,0.00,WeatherDisplay:10.37,2013-02-18 06:36:00,
2013-02-18 00:42:00,54.1,30.9,29.57,SSE,158,15.0,23.0,41,0.00,BKN,BKN,0.00,WeatherDisplay:10.37,2013-02-18 06:42:00,
2013-02-18 00:48:00,54.1,31.5,29.57,SSE,160,16.0,23.0,42,0.00,BKN,BKN,0.00,WeatherDisplay:10.37,2013-02-18 06:48:00,
2013-02-18 00:54:00,54.1,31.5,29.57,SSE,165,21.0,26.0,42,0.00,BKN,BKN,0.00,WeatherDisplay:10.37,2013-02-18 06:54:00,
2013-02-18 01:00:00,54.0,31.4,29.57,SSE,159,14.0,26.0,42,0.00,BKN,BKN,0.00,WeatherDisplay:10.37,2013-02-18 07:00:00,
2013-02-18 01:06:00,54.1,31.5,29.57,SSE,164,22.0,26.0,42,0.00,BKN,BKN,0.00,WeatherDisplay:10.37,2013-02-18 07:06:00,
2013-02-18 01:12:00,54.0,31.4,29.57,SSE,155,15.0,24.0,42,0.00,BKN,BKN,0.00,WeatherDisplay:10.37,2013-02-18 07:12:00,
2013-02-18 01:18:00,53.8,31.2,29.57,SSE,154,17.0,24.0,42,0.00,BKN,BKN,0.00,WeatherDisplay:10.37,2013-02-18 07:18:00,
2013-02-18 01:24:00,53.8,31.8,29.56,SSE,166,14.0,19.0,43,0.00,BKN,BKN,0.00,WeatherDisplay:10.37,2013-02-18 07:24:00,
2013-02-18 01:30:00,54.3,32.3,29.56,SSE,156,20.0,29.0,43,0.00,BKN,BKN,0.00,WeatherDisplay:10.37,2013-02-18 07:30:00,
2013-02-18 01:36:00,54.5,32.4,29.56,SE,144,18.0,24.0,43,0.00,BKN,BKN,0.00,WeatherDisplay:10.37,2013-02-18 07:36:00,
2013-02-18 01:42:00,54.3,32.3,29.56,SE,134,15.0,22.0,43,0.00,BKN,BKN,0.00,WeatherDisplay:10.37,2013-02-18 07:42:00,
2013-02-18 01:48:00,54.3,32.3,29.56,SE,135,14.0,25.0,43,0.00,BKN,BKN,0.00,WeatherDisplay:10.37,2013-02-18 07:48:00,
2013-02-18 01:54:00,54.0,32.6,29.55,SSE,163,15.0,21.0,44,0.00,BKN,BKN,0.00,WeatherDisplay:10.37,2013-02-18 07:54:00,
2013-02-18 02:00:00,54.0,32.6,29.55,South,170,20.0,24.0,44,0.00,BKN,BKN,0.00,WeatherDisplay:10.37,2013-02-18 08:00:00,
2013-02-18 02:06:00,54.1,32.6,29.55,SSE,151,16.0,30.0,44,0.00,BKN,BKN,0.00,WeatherDisplay:10.37,2013-02-18 08:06:00,
2013-02-18 02:12:00,54.1,33.2,29.55,SSE,151,17.0,30.0,45,0.00,BKN,BKN,0.00,WeatherDisplay:10.37,2013-02-18 08:12:00,
2013-02-18 02:18:00,54.0,33.7,29.53,SE,144,18.0,21.0,46,0.00,BKN,BKN,0.00,WeatherDisplay:10.37,2013-02-18 08:18:00,
2013-02-18 02:24:00,53.8,34.0,29.53,SE,144,15.0,17.0,47,0.00,BKN,BKN,0.00,WeatherDisplay:10.37,2013-02-18 08:24:00,
2013-02-18 02:30:00,54.0,34.2,29.53,SSE,147,17.0,23.0,47,0.00,BKN,BKN,0.00,WeatherDisplay:10.37,2013-02-18 08:30:00,
2013-02-18 02:36:00,54.0,34.2,29.53,SSE,157,18.0,28.0,47,0.00,BKN,BKN,0.00,WeatherDisplay:10.37,2013-02-18 08:36:00,
2013-02-18 02:45:00,53.8,35.1,29.52,SSE,152,18.0,29.0,49,0.00,BKN,BKN,0.00,WeatherDisplay:10.37,2013-02-18 08:45:00,
2013-02-18 02:51:00,54.1,35.3,29.52,SE,145,20.0,23.0,49,0.00,BKN,BKN,0.00,WeatherDisplay:10.37,2013-02-18 08:51:00,
2013-02-18 02:57:00,54.1,35.9,29.52,SE,141,15.0,26.0,50,0.00,BKN,BKN,0.00,WeatherDisplay:10.37,2013-02-18 08:57:00,
2013-02-18 03:03:00,54.3,36.0,29.51,SSE,153,22.0,33.0,50,0.00,BKN,BKN,0.00,WeatherDisplay:10.37,2013-02-18 09:03:00,
2013-02-18 03:09:00,54.3,36.5,29.51,SSE,150,17.0,22.0,51,0.00,BKN,BKN,0.00,WeatherDisplay:10.37,2013-02-18 09:09:00,
2013-02-18 03:15:00,54.3,36.5,29.51,SSE,155,16.0,23.0,51,0.00,BKN,BKN,0.00,WeatherDisplay:10.37,2013-02-18 09:15:00,
2013-02-18 03:21:00,54.3,37.0,29.51,SSE,166,23.0,26.0,52,0.00,BKN,BKN,0.00,WeatherDisplay:10.37,2013-02-18 09:21:00,
2013-02-18 03:27:00,54.3,37.0,29.51,SSW,202,21.0,23.0,52,0.00,BKN,BKN,0.00,WeatherDisplay:10.37,2013-02-18 09:27:00,
2013-02-18 03:33:00,54.1,37.3,29.51,South,174,24.0,35.0,53,0.00,BKN,BKN,0.00,WeatherDisplay:10.37,2013-02-18 09:33:00,
2013-02-18 03:39:00,54.1,37.3,29.50,South,183,18.0,28.0,53,0.00,BKN,BKN,0.00,WeatherDisplay:10.37,2013-02-18 09:39:00,
2013-02-18 03:45:00,54.0,37.8,29.50,SSE,156,17.0,23.0,54,0.00,BKN,BKN,0.00,WeatherDisplay:10.37,2013-02-18 09:45:00,
2013-02-18 03:51:00,54.0,37.7,29.50,SSE,149,14.0,14.0,54,0.00,BKN,BKN,0.00,WeatherDisplay:10.37,2013-02-18 09:51:00,
2013-02-18 03:57:00,53.8,38.0,29.50,SE,145,20.0,26.0,55,0.00,BKN,BKN,0.00,WeatherDisplay:10.37,2013-02-18 09:57:00,
2013-02-18 04:03:00,53.8,38.0,29.49,SE,145,17.0,26.0,55,0.00,BKN,BKN,0.00,WeatherDisplay:10.37,2013-02-18 10:03:00,
2013-02-18 04:09:00,53.8,38.5,29.49,SSE,155,21.0,28.0,56,0.00,BKN,BKN,0.00,WeatherDisplay:10.37,2013-02-18 10:09:00,
2013-02-18 04:15:00,53.8,38.9,29.49,SE,138,26.0,31.0,57,0.00,BKN,BKN,0.00,WeatherDisplay:10.37,2013-02-18 10:15:00,
2013-02-18 04:21:00,53.6,38.7,29.49,SE,146,24.0,37.0,57,0.00,BKN,BKN,0.00,WeatherDisplay:10.37,2013-02-18 10:21:00,
2013-02-18 04:27:00,53.2,38.8,29.48,SSE,161,26.0,35.0,58,0.00,BKN,BKN,0.00,WeatherDisplay:10.37,2013-02-18 10:27:00,
2013-02-18 04:33:00,53.1,39.1,29.48,SSE,161,24.0,36.0,59,0.00,BKN,BKN,0.00,WeatherDisplay:10.37,2013-02-18 10:33:00,
2013-02-18 04:39:00,52.9,39.0,29.48,SSE,159,21.0,30.0,59,0.00,BKN,BKN,0.00,WeatherDisplay:10.37,2013-02-18 10:39:00,
2013-02-18 04:45:00,52.7,39.2,29.48,SSE,158,17.0,29.0,60,0.00,BKN,BKN,0.00,WeatherDisplay:10.37,2013-02-18 10:45:00,
2013-02-18 04:51:00,52.7,39.2,29.48,SSE,167,17.0,32.0,60,0.00,BKN,BKN,0.00,WeatherDisplay:10.37,2013-02-18 10:51:00,
2013-02-18 04:57:00,52.3,39.7,29.48,SSE,156,17.0,21.0,62,0.00,BKN,BKN,0.00,WeatherDisplay:10.37,2013-02-18 10:57:00,
2013-02-18 05:03:00,52.2,40.0,29.49,SSE,150,20.0,28.0,63,0.00,BKN,BKN,0.00,WeatherDisplay:10.37,2013-02-18 11:03:00,
2013-02-18 05:09:00,51.8,39.6,29.49,SSE,158,20.0,23.0,63,0.00,BKN,BKN,0.00,WeatherDisplay:10.37,2013-02-18 11:09:00,
2013-02-18 05:15:00,51.8,39.6,29.48,SSE,164,23.0,31.0,63,0.00,BKN,BKN,0.00,WeatherDisplay:10.37,2013-02-18 11:15:00,
2013-02-18 05:21:00,51.6,39.8,29.48,SSE,163,18.0,22.0,64,0.00,BKN,BKN,0.00,WeatherDisplay:10.37,2013-02-18 11:21:00,
2013-02-18 05:27:00,51.2,39.8,29.49,SSE,147,12.0,25.0,65,0.00,BKN,BKN,0.00,WeatherDisplay:10.37,2013-02-18 11:27:00,
2013-02-18 05:33:00,51.1,39.7,29.49,SSE,151,23.0,25.0,65,0.00,BKN,BKN,0.00,WeatherDisplay:10.37,2013-02-18 11:33:00,
2013-02-18 05:39:00,50.7,39.7,29.49,South,176,16.0,21.0,66,0.00,BKN,BKN,0.00,WeatherDisplay:10.37,2013-02-18 11:39:00,
2013-02-18 05:45:00,50.4,39.5,29.49,SSW,199,10.0,23.0,66,0.00,BKN,BKN,0.00,WeatherDisplay:10.37,2013-02-18 11:45:00,
2013-02-18 05:51:00,50.2,39.7,29.50,SSW,195,17.0,26.0,67,0.00,BKN,BKN,0.00,WeatherDisplay:10.37,2013-02-18 11:51:00,
2013-02-18 05:57:00,49.8,39.3,29.50,SSE,160,14.0,21.0,67,0.00,BKN,BKN,0.00,WeatherDisplay:10.37,2013-02-18 11:57:00,
2013-02-18 06:09:00,49.1,39.4,29.50,SSE,155,15.0,23.0,69,0.00,BKN,BKN,0.00,WeatherDisplay:10.37,2013-02-18 12:09:00,
2013-02-18 06:15:00,48.9,39.2,29.50,SSE,154,12.0,18.0,69,0.00,BKN,BKN,0.00,WeatherDisplay:10.37,2013-02-18 12:15:00,
2013-02-18 06:21:00,48.6,39.3,29.50,SSE,167,9.0,20.0,70,0.00,BKN,BKN,0.00,WeatherDisplay:10.37,2013-02-18 12:21:00,
2013-02-18 06:27:00,48.3,39.0,29.49,South,176,12.0,16.0,70,0.00,BKN,BKN,0.00,WeatherDisplay:10.37,2013-02-18 12:27:00,
2013-02-18 06:33:00,48.2,39.2,29.49,SE,140,9.0,17.0,71,0.00,BKN,BKN,0.00,WeatherDisplay:10.37,2013-02-18 12:33:00,
2013-02-18 06:39:00,47.8,38.8,29.49,SSE,147,8.0,12.0,71,0.00,BKN,BKN,0.00,WeatherDisplay:10.37,2013-02-18 12:39:00,
2013-02-18 06:45:00,47.5,38.9,29.49,SSE,163,6.0,9.0,72,0.00,BKN,BKN,0.00,WeatherDisplay:10.37,2013-02-18 12:45:00,
2013-02-18 06:51:00,47.0,38.5,29.51,SSW,204,5.0,7.0,72,0.00,BKN,BKN,0.00,WeatherDisplay:10.37,2013-02-18 12:51:00,
2013-02-18 06:57:00,46.8,37.5,29.51,SSE,149,8.0,12.0,70,0.00,BKN,BKN,0.00,WeatherDisplay:10.37,2013-02-18 12:57:00,
2013-02-18 07:03:00,46.6,34.7,29.50,SE,135,7.0,10.0,63,0.00,SCT,SCT,0.00,WeatherDisplay:10.37,2013-02-18 13:03:00,
2013-02-18 07:09:00,45.9,31.1,29.50,West,269,6.0,8.0,56,0.00,SCT,SCT,0.00,WeatherDisplay:10.37,2013-02-18 13:09:00,
2013-02-18 07:18:00,45.0,28.9,29.51,WNW,297,7.0,10.0,53,0.00,SCT,SCT,0.00,WeatherDisplay:10.37,2013-02-18 13:18:00,
2013-02-18 07:24:00,44.6,28.5,29.51,West,271,7.0,10.0,53,0.00,SCT,SCT,0.00,WeatherDisplay:10.37,2013-02-18 13:24:00,
2013-02-18 07:30:00,44.4,28.3,29.52,West,270,7.0,9.0,53,0.00,SCT,SCT,0.00,WeatherDisplay:10.37,2013-02-18 13:30:00,
2013-02-18 07:36:00,44.0,27.5,29.52,WNW,288,9.0,12.0,52,0.00,SCT,SCT,0.00,WeatherDisplay:10.37,2013-02-18 13:36:00,
2013-02-18 07:42:00,43.3,26.4,29.53,WNW,284,12.0,16.0,51,0.00,SCT,SCT,0.00,WeatherDisplay:10.37,2013-02-18 13:42:00,
2013-02-18 07:51:00,42.1,26.7,29.54,WNW,295,15.0,26.0,54,0.00,SCT,SCT,0.00,WeatherDisplay:10.37,2013-02-18 13:51:00,
2013-02-18 07:57:00,41.7,29.2,29.54,WNW,299,13.0,26.0,61,0.00,SCT,SCT,0.00,WeatherDisplay:10.37,2013-02-18 13:57:00,
2013-02-18 08:03:00,41.2,29.9,29.56,WNW,298,14.0,20.0,64,0.00,SCT,SCT,0.00,WeatherDisplay:10.37,2013-02-18 14:03:00,
2013-02-18 08:09:00,41.0,30.2,29.56,WNW,300,16.0,22.0,65,0.00,SCT,SCT,0.00,WeatherDisplay:10.37,2013-02-18 14:09:00,
2013-02-18 08:15:00,41.0,30.5,29.57,WNW,300,15.0,21.0,66,0.00,SCT,SCT,0.00,WeatherDisplay:10.37,2013-02-18 14:15:00,
2013-02-18 08:21:00,41.0,30.5,29.57,WNW,291,16.0,22.0,66,0.00,SCT,SCT,0.00,WeatherDisplay:10.37,2013-02-18 14:21:00,
2013-02-18 08:27:00,41.4,30.9,29.59,WNW,297,13.0,26.0,66,0.00,SCT,SCT,0.00,WeatherDisplay:10.37,2013-02-18 14:27:00,
2013-02-18 08:36:00,42.0,31.5,29.59,NNW,342,16.0,23.0,66,0.00,SCT,SCT,0.00,WeatherDisplay:10.37,2013-02-18 14:36:00,
2013-02-18 08:42:00,42.4,31.8,29.60,NNW,329,13.0,17.0,66,0.00,SCT,SCT,0.00,WeatherDisplay:10.37,2013-02-18 14:42:00,
2013-02-18 08:48:00,42.8,32.2,29.61,NW,317,14.0,24.0,66,0.00,SCT,SCT,0.00,WeatherDisplay:10.37,2013-02-18 14:48:00,
2013-02-18 08:54:00,43.2,32.6,29.61,NW,314,10.0,22.0,66,0.00,SCT,SCT,0.00,WeatherDisplay:10.37,2013-02-18 14:54:00,
2013-02-18 09:00:00,43.7,32.7,29.62,NW,305,12.0,18.0,65,0.00,SCT,SCT,0.00,WeatherDisplay:10.37,2013-02-18 15:00:00,
2013-02-18 09:06:00,43.7,32.7,29.62,NW,326,14.0,25.0,65,0.00,SCT,SCT,0.00,WeatherDisplay:10.37,2013-02-18 15:06:00,
2013-02-18 09:12:00,43.9,32.9,29.63,NW,326,17.0,23.0,65,0.00,SCT,SCT,0.00,WeatherDisplay:10.37,2013-02-18 15:12:00,
2013-02-18 09:18:00,44.1,32.7,29.64,WNW,301,15.0,26.0,64,0.00,SCT,SCT,0.00,WeatherDisplay:10.37,2013-02-18 15:18:00,
2013-02-18 09:24:00,44.1,32.7,29.64,NW,306,20.0,29.0,64,0.00,SCT,SCT,0.00,WeatherDisplay:10.37,2013-02-18 15:24:00,
2013-02-18 09:30:00,44.1,32.3,29.65,WNW,287,17.0,26.0,63,0.00,SCT,SCT,0.00,WeatherDisplay:10.37,2013-02-18 15:30:00,
2013-02-18 09:36:00,44.4,32.6,29.65,West,277,13.0,16.0,63,0.00,SCT,SCT,0.00,WeatherDisplay:10.37,2013-02-18 15:36:00,
2013-02-18 09:42:00,44.6,32.4,29.67,NW,312,20.0,26.0,62,0.00,SCT,SCT,0.00,WeatherDisplay:10.37,2013-02-18 15:42:00,
2013-02-18 09:48:00,44.6,32.4,29.67,NW,324,20.0,21.0,62,0.00,SCT,SCT,0.00,WeatherDisplay:10.37,2013-02-18 15:48:00,
2013-02-18 09:54:00,44.8,32.6,29.68,NW,316,20.0,25.0,62,0.00,SCT,SCT,0.00,WeatherDisplay:10.37,2013-02-18 15:54:00,
2013-02-18 10:00:00,45.0,32.7,29.68,NW,310,12.0,20.0,62,0.00,SCT,SCT,0.00,WeatherDisplay:10.37,2013-02-18 16:00:00,
2013-02-18 10:06:00,45.0,31.9,29.70,WNW,295,18.0,33.0,60,0.00,SCT,SCT,0.00,WeatherDisplay:10.37,2013-02-18 16:06:00,
2013-02-18 10:12:00,45.0,31.9,29.70,NW,305,18.0,22.0,60,0.00,SCT,SCT,0.00,WeatherDisplay:10.37,2013-02-18 16:12:00,
2013-02-18 10:18:00,44.6,31.6,29.72,West,280,21.0,30.0,60,0.00,SCT,SCT,0.00,WeatherDisplay:10.37,2013-02-18 16:18:00,
2013-02-18 10:24:00,44.8,31.8,29.72,WNW,295,15.0,21.0,60,0.00,SCT,SCT,0.00,WeatherDisplay:10.37,2013-02-18 16:24:00,
2013-02-18 10:30:00,45.0,31.5,29.73,NW,315,16.0,28.0,59,0.00,SCT,SCT,0.00,WeatherDisplay:10.37,2013-02-18 16:30:00,
2013-02-18 10:36:00,45.3,31.4,29.73,NW,321,14.0,21.0,58,0.00,SCT,SCT,0.00,WeatherDisplay:10.37,2013-02-18 16:36:00,
2013-02-18 10:42:00,44.5,30.6,29.74,NW,314,24.0,45.0,58,0.00,SCT,SCT,0.00,WeatherDisplay:10.37,2013-02-18 16:42:00,
2013-02-18 10:48:00,44.5,30.6,29.74,NW,324,17.0,25.0,58,0.00,SCT,SCT,0.00,WeatherDisplay:10.37,2013-02-18 16:48:00,
2013-02-18 10:54:00,44.8,30.9,29.76,NNW,329,14.0,23.0,58,0.00,SCT,SCT,0.00,WeatherDisplay:10.37,2013-02-18 16:54:00,
2013-02-18 11:00:00,45.0,31.1,29.77,NW,325,15.0,21.0,58,0.00,SCT,SCT,0.00,WeatherDisplay:10.37,2013-02-18 17:00:00,
2013-02-18 11:06:00,45.0,30.7,29.77,NW,314,20.0,23.0,57,0.00,BKN,BKN,0.00,WeatherDisplay:10.37,2013-02-18 17:06:00,
2013-02-18 11:12:00,46.0,30.7,29.77,NW,309,21.0,24.0,55,0.00,BKN,BKN,0.00,WeatherDisplay:10.37,2013-02-18 17:12:00,
2013-02-18 11:18:00,46.4,30.6,29.78,NW,315,17.0,24.0,54,0.00,BKN,BKN,0.00,WeatherDisplay:10.37,2013-02-18 17:18:00,
2013-02-18 11:24:00,45.9,30.2,29.78,NW,326,14.0,24.0,54,0.00,BKN,BKN,0.00,WeatherDisplay:10.37,2013-02-18 17:24:00,
2013-02-18 11:30:00,45.9,30.2,29.79,WNW,300,14.0,21.0,54,0.00,BKN,BKN,0.00,WeatherDisplay:10.37,2013-02-18 17:30:00,
2013-02-18 11:36:00,45.9,29.7,29.79,WNW,299,13.0,21.0,53,0.00,BKN,BKN,0.00,WeatherDisplay:10.37,2013-02-18 17:36:00,
2013-02-18 11:45:00,46.5,30.3,29.80,NW,314,12.0,25.0,53,0.00,BKN,BKN,0.00,WeatherDisplay:10.37,2013-02-18 17:45:00,
2013-02-18 11:51:00,48.7,30.4,29.80,NW,320,12.0,17.0,49,0.00,BKN,BKN,0.00,WeatherDisplay:10.37,2013-02-18 17:51:00,
2013-02-18 11:57:00,48.4,30.1,29.80,NW,313,13.0,13.0,49,0.00,BKN,BKN,0.00,WeatherDisplay:10.37,2013-02-18 17:57:00,
2013-02-18 12:03:00,48.7,29.9,29.81,NW,311,15.0,23.0,48,0.00,BKN,BKN,0.00,WeatherDisplay:10.37,2013-02-18 18:03:00,
2013-02-18 12:09:00,48.7,29.4,29.81,WNW,298,23.0,32.0,47,0.00,BKN,BKN,0.00,WeatherDisplay:10.37,2013-02-18 18:09:00,
2013-02-18 12:15:00,50.2,30.2,29.81,NW,313,12.0,21.0,46,0.00,BKN,BKN,0.00,WeatherDisplay:10.37,2013-02-18 18:15:00,
2013-02-18 12:21:00,49.5,29.6,29.81,NW,319,12.0,21.0,46,0.00,BKN,BKN,0.00,WeatherDisplay:10.37,2013-02-18 18:21:00,
2013-02-18 12:27:00,50.1,30.1,29.81,WNW,302,17.0,23.0,46,0.00,BKN,BKN,0.00,WeatherDisplay:10.37,2013-02-18 18:27:00,
2013-02-18 12:33:00,50.1,30.1,29.81,WNW,299,17.0,23.0,46,0.00,BKN,BKN,0.00,WeatherDisplay:10.37,2013-02-18 18:33:00,
2013-02-18 12:39:00,49.9,30.0,29.81,NW,318,15.0,30.0,46,0.00,BKN,BKN,0.00,WeatherDisplay:10.37,2013-02-18 18:39:00,
2013-02-18 12:45:00,50.2,30.2,29.81,WNW,297,16.0,20.0,46,0.00,BKN,BKN,0.00,WeatherDisplay:10.37,2013-02-18 18:45:00,
2013-02-18 12:51:00,50.0,30.0,29.81,WNW,291,16.0,29.0,46,0.00,BKN,BKN,0.00,WeatherDisplay:10.37,2013-02-18 18:51:00,
2013-02-18 12:57:00,50.7,30.1,29.81,WNW,297,12.0,23.0,45,0.00,BKN,BKN,0.00,WeatherDisplay:10.37,2013-02-18 18:57:00,
2013-02-18 13:03:00,50.1,30.1,29.82,NW,308,10.0,21.0,46,0.00,BKN,BKN,0.00,WeatherDisplay:10.37,2013-02-18 19:03:00,
2013-02-18 13:09:00,49.5,30.1,29.82,NNW,329,13.0,19.0,47,0.00,BKN,BKN,0.00,WeatherDisplay:10.37,2013-02-18 19:09:00,
2013-02-18 13:15:00,48.0,30.2,29.84,NW,305,16.0,21.0,50,0.00,BKN,BKN,0.00,WeatherDisplay:10.37,2013-02-18 19:15:00,
2013-02-18 13:21:00,49.6,31.2,29.84,NW,320,10.0,20.0,49,0.00,BKN,BKN,0.00,WeatherDisplay:10.37,2013-02-18 19:21:00,
2013-02-18 13:27:00,49.8,30.9,29.84,NW,317,17.0,23.0,48,0.00,BKN,BKN,0.00,WeatherDisplay:10.37,2013-02-18 19:27:00,
2013-02-18 13:33:00,50.1,30.1,29.84,WNW,302,15.0,17.0,46,0.00,BKN,BKN,0.00,WeatherDisplay:10.37,2013-02-18 19:33:00,
2013-02-18 13:39:00,51.6,30.4,29.84,NW,306,13.0,23.0,44,0.00,BKN,BKN,0.00,WeatherDisplay:10.37,2013-02-18 19:39:00,
2013-02-18 13:45:00,51.5,29.7,29.84,WNW,284,12.0,23.0,43,0.00,BKN,BKN,0.00,WeatherDisplay:10.37,2013-02-18 19:45:00,
2013-02-18 13:51:00,52.3,29.3,29.84,West,273,14.0,24.0,41,0.00,BKN,BKN,0.00,WeatherDisplay:10.37,2013-02-18 19:51:00,
2013-02-18 13:57:00,51.4,28.4,29.84,West,281,14.0,21.0,41,0.00,BKN,BKN,0.00,WeatherDisplay:10.37,2013-02-18 19:57:00,
2013-02-18 14:03:00,51.4,27.8,29.85,WNW,297,18.0,22.0,40,0.00,BKN,BKN,0.00,WeatherDisplay:10.37,2013-02-18 20:03:00,
2013-02-18 14:09:00,52.1,28.5,29.85,NW,315,14.0,17.0,40,0.00,BKN,BKN,0.00,WeatherDisplay:10.37,2013-02-18 20:09:00,
2013-02-18 14:15:00,51.3,29.0,29.85,WNW,302,17.0,21.0,42,0.00,BKN,BKN,0.00,WeatherDisplay:10.37,2013-02-18 20:15:00,
2013-02-18 14:21:00,52.2,28.6,29.85,WNW,296,15.0,20.0,40,0.00,BKN,BKN,0.00,WeatherDisplay:10.37,2013-02-18 20:21:00,
2013-02-18 14:27:00,52.0,28.4,29.85,NW,304,14.0,29.0,40,0.00,BKN,BKN,0.00,WeatherDisplay:10.37,2013-02-18 20:27:00,
2013-02-18 14:33:00,52.3,28.7,29.85,NW,313,8.0,12.0,40,0.00,BKN,BKN,0.00,WeatherDisplay:10.37,2013-02-18 20:33:00,
2013-02-18 14:39:00,52.1,28.5,29.85,NW,306,18.0,28.0,40,0.00,BKN,BKN,0.00,WeatherDisplay:10.37,2013-02-18 20:39:00,
2013-02-18 14:45:00,52.0,28.4,29.85,West,281,15.0,20.0,40,0.00,BKN,BKN,0.00,WeatherDisplay:10.37,2013-02-18 20:45:00,
2013-02-18 14:51:00,51.4,27.9,29.86,WNW,294,17.0,25.0,40,0.00,BKN,BKN,0.00,WeatherDisplay:10.37,2013-02-18 20:51:00,
2013-02-18 14:57:00,51.8,27.6,29.86,NW,306,13.0,16.0,39,0.00,BKN,BKN,0.00,WeatherDisplay:10.37,2013-02-18 20:57:00,
2013-02-18 15:03:00,51.7,26.9,29.87,NW,313,10.0,18.0,38,0.00,SCT,SCT,0.00,WeatherDisplay:10.37,2013-02-18 21:03:00,
2013-02-18 15:09:00,51.2,26.4,29.87,NW,309,22.0,33.0,38,0.00,SCT,SCT,0.00,WeatherDisplay:10.37,2013-02-18 21:09:00,
2013-02-18 15:15:00,51.6,26.8,29.87,WNW,297,22.0,25.0,38,0.00,SCT,SCT,0.00,WeatherDisplay:10.37,2013-02-18 21:15:00,
2013-02-18 15:21:00,51.3,26.5,29.87,WNW,283,14.0,20.0,38,0.00,SCT,SCT,0.00,WeatherDisplay:10.37,2013-02-18 21:21:00,
2013-02-18 15:27:00,51.6,26.1,29.88,SSW,207,14.0,21.0,37,0.00,SCT,SCT,0.00,WeatherDisplay:10.37,2013-02-18 21:27:00,
2013-02-18 15:33:00,51.2,25.8,29.88,WNW,288,22.0,32.0,37,0.00,SCT,SCT,0.00,WeatherDisplay:10.37,2013-02-18 21:33:00,
2013-02-18 15:39:00,50.9,26.2,29.89,WNW,289,15.0,23.0,38,0.00,SCT,SCT,0.00,WeatherDisplay:10.37,2013-02-18 21:39:00,
2013-02-18 15:45:00,50.8,25.4,29.89,WNW,292,14.0,33.0,37,0.00,SCT,SCT,0.00,WeatherDisplay:10.37,2013-02-18 21:45:00,
2013-02-18 15:51:00,51.5,26.0,29.89,NW,311,13.0,22.0,37,0.00,SCT,SCT,0.00,WeatherDisplay:10.37,2013-02-18 21:51:00,
2013-02-18 15:57:00,50.8,25.4,29.89,NNW,336,13.0,21.0,37,0.00,SCT,SCT,0.00,WeatherDisplay:10.37,2013-02-18 21:57:00,
2013-02-18 16:03:00,50.9,25.5,29.90,NW,305,9.0,16.0,37,0.00,SCT,SCT,0.00,WeatherDisplay:10.37,2013-02-18 22:03:00,
2013-02-18 16:09:00,50.2,25.6,29.90,North,355,12.0,21.0,38,0.00,SCT,SCT,0.00,WeatherDisplay:10.37,2013-02-18 22:09:00,
2013-02-18 16:15:00,50.2,25.6,29.90,North,357,9.0,13.0,38,0.00,SCT,SCT,0.00,WeatherDisplay:10.37,2013-02-18 22:15:00,
2013-02-18 16:21:00,50.9,26.2,29.90,NW,318,13.0,16.0,38,0.00,SCT,SCT,0.00,WeatherDisplay:10.37,2013-02-18 22:21:00,
2013-02-18 16:27:00,50.4,25.7,29.91,NW,317,13.0,20.0,38,0.00,SCT,SCT,0.00,WeatherDisplay:10.37,2013-02-18 22:27:00,
2013-02-18 16:33:00,50.2,25.6,29.91,NW,308,15.0,20.0,38,0.00,SCT,SCT,0.00,WeatherDisplay:10.37,2013-02-18 22:33:00,
2013-02-18 16:39:00,49.6,25.0,29.92,NW,308,9.0,16.0,38,0.00,SCT,SCT,0.00,WeatherDisplay:10.37,2013-02-18 22:39:00,
2013-02-18 16:45:00,49.8,25.2,29.92,North,359,12.0,14.0,38,0.00,SCT,SCT,0.00,WeatherDisplay:10.37,2013-02-18 22:45:00,
2013-02-18 16:51:00,49.6,25.0,29.92,NW,309,13.0,18.0,38,0.00,SCT,SCT,0.00,WeatherDisplay:10.37,2013-02-18 22:51:00,
2013-02-18 16:57:00,49.6,25.0,29.92,West,276,9.0,16.0,38,0.00,SCT,SCT,0.00,WeatherDisplay:10.37,2013-02-18 22:57:00,
2013-02-18 17:03:00,49.4,24.8,29.93,West,277,10.0,14.0,38,0.00,SCT,SCT,0.00,WeatherDisplay:10.37,2013-02-18 23:03:00,
2013-02-18 17:09:00,49.6,25.6,29.93,NW,313,8.0,14.0,39,0.00,SCT,SCT,0.00,WeatherDisplay:10.37,2013-02-18 23:09:00,
2013-02-18 17:15:00,48.9,25.0,29.94,WNW,288,10.0,20.0,39,0.00,SCT,SCT,0.00,WeatherDisplay:10.37,2013-02-18 23:15:00,
2013-02-18 17:21:00,48.7,24.2,29.94,West,277,13.0,16.0,38,0.00,SCT,SCT,0.00,WeatherDisplay:10.37,2013-02-18 23:21:00,
2013-02-18 17:27:00,48.6,24.1,29.94,West,274,13.0,16.0,38,0.00,SCT,SCT,0.00,WeatherDisplay:10.37,2013-02-18 23:27:00,
2013-02-18 17:36:00,48.2,23.7,29.95,WNW,294,13.0,16.0,38,0.00,SCT,SCT,0.00,WeatherDisplay:10.37,2013-02-18 23:36:00,
2013-02-18 17:42:00,47.7,23.3,29.95,NW,307,10.0,16.0,38,0.00,SCT,SCT,0.00,WeatherDisplay:10.37,2013-02-18 23:42:00,
2013-02-18 17:48:00,47.1,23.4,29.96,WNW,288,8.0,12.0,39,0.00,SCT,SCT,0.00,WeatherDisplay:10.37,2013-02-18 23:48:00,
2013-02-18 17:54:00,46.8,23.1,29.96,WNW,285,8.0,16.0,39,0.00,SCT,SCT,0.00,WeatherDisplay:10.37,2013-02-18 23:54:00,
2013-02-18 18:00:00,46.4,22.8,29.96,WNW,300,10.0,20.0,39,0.00,SCT,SCT,0.00,WeatherDisplay:10.37,2013-02-19 00:00:00,
2013-02-18 18:06:00,45.9,22.9,29.97,NW,314,10.0,14.0,40,0.00,FEW,FEW,0.00,WeatherDisplay:10.37,2013-02-19 00:06:00,
2013-02-18 18:15:00,45.1,22.8,29.98,WNW,296,8.0,9.0,41,0.00,FEW,FEW,0.00,WeatherDisplay:10.37,2013-02-19 00:15:00,
2013-02-18 18:21:00,44.7,22.4,29.98,NNW,338,6.0,9.0,41,0.00,FEW,FEW,0.00,WeatherDisplay:10.37,2013-02-19 00:21:00,
2013-02-18 18:27:00,44.1,22.4,29.99,NNW,336,7.0,12.0,42,0.00,FEW,FEW,0.00,WeatherDisplay:10.37,2013-02-19 00:27:00,
2013-02-18 18:33:00,43.8,22.2,29.99,NNW,328,7.0,14.0,42,0.00,FEW,FEW,0.00,WeatherDisplay:10.37,2013-02-19 00:33:00,
2013-02-18 18:39:00,43.3,21.7,30.01,NW,324,5.0,9.0,42,0.00,FEW,FEW,0.00,WeatherDisplay:10.37,2013-02-19 00:39:00,
2013-02-18 18:48:00,42.8,21.8,30.01,NNW,330,8.0,10.0,43,0.00,FEW,FEW,0.00,WeatherDisplay:10.37,2013-02-19 00:48:00,
2013-02-18 18:54:00,42.4,22.0,30.02,NNW,341,3.0,8.0,44,0.00,FEW,FEW,0.00,WeatherDisplay:10.37,2013-02-19 00:54:00,
2013-02-18 19:00:00,42.1,21.7,30.02,North,352,6.0,9.0,44,0.00,FEW,FEW,0.00,WeatherDisplay:10.37,2013-02-19 01:00:00,
2013-02-18 19:06:00,41.9,21.5,30.03,ENE,57,7.0,7.0,44,0.00,CLR,CLR,0.00,WeatherDisplay:10.37,2013-02-19 01:06:00,
2013-02-18 19:12:00,41.4,21.6,30.03,East,92,5.0,9.0,45,0.00,CLR,CLR,0.00,WeatherDisplay:10.37,2013-02-19 01:12:00,
2013-02-18 19:18:00,41.0,21.3,30.03,NNW,333,6.0,7.0,45,0.00,CLR,CLR,0.00,WeatherDisplay:10.37,2013-02-19 01:18:00,
2013-02-18 19:24:00,40.7,21.0,30.03,NW,315,6.0,8.0,45,0.00,CLR,CLR,0.00,WeatherDisplay:10.37,2013-02-19 01:24:00,
2013-02-18 19:30:00,40.3,20.6,30.05,NNW,331,3.0,6.0,45,0.00,CLR,CLR,0.00,WeatherDisplay:10.37,2013-02-19 01:30:00,
2013-02-18 19:36:00,39.9,20.8,30.05,NW,315,5.0,7.0,46,0.00,CLR,CLR,0.00,WeatherDisplay:10.37,2013-02-19 01:36:00,
2013-02-18 19:42:00,39.6,20.5,30.05,NNW,333,5.0,7.0,46,0.00,CLR,CLR,0.00,WeatherDisplay:10.37,2013-02-19 01:42:00,
2013-02-18 19:48:00,39.2,20.1,30.05,North,2,5.0,7.0,46,0.00,CLR,CLR,0.00,WeatherDisplay:10.37,2013-02-19 01:48:00,
2013-02-18 19:54:00,38.8,20.3,30.05,NNW,331,6.0,7.0,47,0.00,CLR,CLR,0.00,WeatherDisplay:10.37,2013-02-19 01:54:00,
2013-02-18 20:00:00,38.7,20.7,30.05,NW,315,3.0,9.0,48,0.00,CLR,CLR,0.00,WeatherDisplay:10.37,2013-02-19 02:00:00,
2013-02-18 20:06:00,38.2,20.2,30.06,NW,323,2.0,6.0,48,0.00,CLR,CLR,0.00,WeatherDisplay:10.37,2013-02-19 02:06:00,
2013-02-18 20:12:00,37.8,20.3,30.06,NW,320,1.0,6.0,49,0.00,CLR,CLR,0.00,WeatherDisplay:10.37,2013-02-19 02:12:00,
2013-02-18 20:18:00,37.4,20.0,30.07,NNW,339,3.0,6.0,49,0.00,CLR,CLR,0.00,WeatherDisplay:10.37,2013-02-19 02:18:00,
2013-02-18 20:24:00,37.1,20.1,30.07,NNW,345,2.0,4.0,50,0.00,CLR,CLR,0.00,WeatherDisplay:10.37,2013-02-19 02:24:00,
2013-02-18 20:30:00,36.9,20.0,30.07,NW,311,0.0,2.0,50,0.00,CLR,CLR,0.00,WeatherDisplay:10.37,2013-02-19 02:30:00,
2013-02-18 20:36:00,36.7,20.7,30.07,NW,304,0.0,0.0,52,0.00,CLR,CLR,0.00,WeatherDisplay:10.37,2013-02-19 02:36:00,
2013-02-18 20:42:00,36.1,20.1,30.08,WNW,297,0.0,0.0,52,0.00,CLR,CLR,0.00,WeatherDisplay:10.37,2013-02-19 02:42:00,
2013-02-18 20:48:00,35.4,19.9,30.08,WNW,303,0.0,0.0,53,0.00,CLR,CLR,0.00,WeatherDisplay:10.37,2013-02-19 02:48:00,
2013-02-18 21:30:00,33.3,19.7,30.10,WNW,296,0.0,0.0,57,0.00,CLR,CLR,0.00,WeatherDisplay:10.37,2013-02-19 03:30:00,
2013-02-18 21:36:00,32.8,19.6,30.10,West,276,0.0,0.0,58,0.00,CLR,CLR,0.00,WeatherDisplay:10.37,2013-02-19 03:36:00,
2013-02-18 21:45:00,32.0,19.2,30.10,West,270,0.0,0.0,59,0.00,CLR,CLR,0.00,WeatherDisplay:10.37,2013-02-19 03:45:00,
2013-02-18 21:51:00,31.6,19.3,30.11,West,270,0.0,0.0,60,0.00,CLR,CLR,0.00,WeatherDisplay:10.37,2013-02-19 03:51:00,
2013-02-18 21:57:00,31.6,19.3,30.11,West,278,0.0,0.0,60,0.00,CLR,CLR,0.00,WeatherDisplay:10.37,2013-02-19 03:57:00,
2013-02-18 22:03:00,31.3,19.4,30.12,West,275,0.0,0.0,61,0.00,CLR,CLR,0.00,WeatherDisplay:10.37,2013-02-19 04:03:00,
2013-02-18 22:09:00,31.3,19.8,30.12,WNW,287,0.0,0.0,62,0.00,CLR,CLR,0.00,WeatherDisplay:10.37,2013-02-19 04:09:00,
2013-02-18 22:15:00,31.3,19.8,30.12,NW,306,0.0,0.0,62,0.00,CLR,CLR,0.00,WeatherDisplay:10.37,2013-02-19 04:15:00,
2013-02-18 22:21:00,31.5,19.2,30.12,NNW,334,0.0,0.0,60,0.00,CLR,CLR,0.00,WeatherDisplay:10.37,2013-02-19 04:21:00,
2013-02-18 22:27:00,31.5,19.2,30.14,NNW,338,0.0,0.0,60,0.00,CLR,CLR,0.00,WeatherDisplay:10.37,2013-02-19 04:27:00,
2013-02-18 22:33:00,30.9,18.6,30.14,NNW,338,0.0,0.0,60,0.00,CLR,CLR,0.00,WeatherDisplay:10.37,2013-02-19 04:33:00,
2013-02-18 22:39:00,30.7,18.4,30.14,NNW,338,0.0,0.0,60,0.00,CLR,CLR,0.00,WeatherDisplay:10.37,2013-02-19 04:39:00,
2013-02-18 22:45:00,30.7,18.4,30.14,NNW,338,0.0,0.0,60,0.00,CLR,CLR,0.00,WeatherDisplay:10.37,2013-02-19 04:45:00,
2013-02-18 22:51:00,30.6,18.3,30.14,NNW,338,0.0,0.0,60,0.00,CLR,CLR,0.00,WeatherDisplay:10.37,2013-02-19 04:51:00,
2013-02-18 22:57:00,30.6,19.1,30.14,NNW,338,0.0,0.0,62,0.00,CLR,CLR,0.00,WeatherDisplay:10.37,2013-02-19 04:57:00,
2013-02-18 23:03:00,30.2,18.7,30.14,NNW,338,0.0,0.0,62,0.00,CLR,CLR,0.00,WeatherDisplay:10.37,2013-02-19 05:03:00,
2013-02-18 23:06:00,29.9,18.5,30.14,NNW,338,0.0,0.0,62,0.00,CLR,CLR,0.00,WeatherDisplay:10.37,2013-02-19 05:06:00,
2013-02-18 23:12:00,29.6,18.6,30.14,NNW,338,0.0,0.0,63,0.00,CLR,CLR,0.00,WeatherDisplay:10.37,2013-02-19 05:12:00,
2013-02-18 23:15:00,29.3,18.3,30.14,NNW,338,0.0,0.0,63,0.00,CLR,CLR,0.00,WeatherDisplay:10.37,2013-02-19 05:15:00,
2013-02-18 23:21:00,29.1,18.4,30.14,NNW,338,0.0,0.0,64,0.00,CLR,CLR,0.00,WeatherDisplay:10.37,2013-02-19 05:21:00,
2013-02-18 23:27:00,28.9,18.6,30.15,NNW,338,0.0,0.0,65,0.00,CLR,CLR,0.00,WeatherDisplay:10.37,2013-02-19 05:27:00,
2013-02-18 23:33:00,28.0,18.5,30.15,NNW,338,0.0,0.0,67,0.00,CLR,CLR,0.00,WeatherDisplay:10.37,2013-02-19 05:33:00,
2013-02-18 23:39:00,27.9,19.1,30.15,NNW,338,0.0,0.0,69,0.00,CLR,CLR,0.00,WeatherDisplay:10.37,2013-02-19 05:39:00,
2013-02-18 23:45:00,27.3,18.8,30.15,NNW,338,0.0,0.0,70,0.00,CLR,CLR,0.00,WeatherDisplay:10.37,2013-02-19 05:45:00,
2013-02-18 23:51:00,26.8,18.3,30.15,NNW,338,0.0,0.0,70,0.00,CLR,CLR,0.00,WeatherDisplay:10.37,2013-02-19 05:51:00,
2013-02-18 23:54:00,27.0,18.5,30.15,NNW,338,0.0,0.0,70,0.00,CLR,CLR,0.00,WeatherDisplay:10.37,2013-02-19 05:54:00,